Location: Palomar Mountain Lodge
(33.3110°N, 116.8495°W)
Time: 15:23:14
(UTC-07:00)

Cosmos 2074 Rocket - Pass Details

Date: 19 May 2017
Orbit: 968 x 985 km, 82.9° (Epoch: 23 June)

Event Time Altitude Azimuth Distance (km) Brightness Sun altitude
Rises 21:58:18 0° 352° (N) 3,669 7.9 -23.6°
Reaches altitude 10° 22:00:48 10° 351° (N) 2,720 7.1 -24.0°
Maximum altitude 22:07:02 78° 266° (W) 998 4.0 -24.8°
Enters shadow 22:09:07 44° 189° (S) 1,312 4.3 -25.1°
